Location: Unspecified
(50.7693°N, 0.0000°E)
Time: 19:21:47
(UTC+00:00)

Vanguard 1 Rocket - Visible Passes

Search period start: 18 June 2019 00:00
Search period end: 28 June 2019 00:00
Orbit: 652 x 4224 km, 34.3° (Epoch: 17 June)

Date Brightness Start Highest point End Pass type
(mag) Time Alt. Az. Time Alt. Az. Time Alt. Az.
18 Jun 9.1 22:30:08 10° SW 22:32:10 12° SSW 22:33:09 11° SSW visible
19 Jun 9.0 21:16:18 10° WSW 21:21:46 19° SSW 21:25:44 10° SSE visible
21 Jun 9.1 21:18:43 10° WSW 21:24:14 18° SSW 21:28:15 10° SSE visible
23 Jun 9.3 21:21:17 10° WSW 21:26:36 17° SSW 21:30:33 10° S visible
25 Jun 9.5 21:24:04 10° WSW 21:28:52 15° SW 21:32:34 10° S visible
27 Jun 9.8 21:27:12 10° WSW 21:31:01 13° SW 21:34:08 10° SSW visible
